When you browse on this site, cookies collect data to enhance your experience and personalize the content and advertising you see.
Visit our Privacy Policy to learn more. By continuing to use the site, you agree to this use of cookies and data.
  • In Latvia
  • List of Countries
  • For 7 days
  • Water Temperature
  • Satellite Maps
  • Weather Map
  • Weather Widgets
  • user-avatar
    Login

    Hourly Weather Buffalo

    Today, 17 July, Wednesday

    Time Temperature Precipitation Wind Pressure Humidity
    00:00 +24°C° 1.6 mm 3 mps 744 mmHg 90%
    01:00 +24°C° 0 mm 3 mps 744 mmHg 93%
    02:00 +24°C° 1.4 mm 3 mps 744 mmHg 92%
    03:00 +24°C° 1.4 mm 3 mps 743 mmHg 92%
    04:00 +24°C° 1.4 mm 3 mps 743 mmHg 92%
    05:00 +24°C° 1 mm 3 mps 743 mmHg 92%
    06:00 +24°C° 1 mm 3 mps 743 mmHg 92%
    07:00 +24°C° 0 mm 3 mps 744 mmHg 92%
    08:00 +24°C° 0.8 mm 3 mps 744 mmHg 91%
    09:00 +25°C° 0.8 mm 3 mps 743 mmHg 91%
    10:00 +25°C° 0.8 mm 3 mps 743 mmHg 90%
    11:00 +25°C° 0.8 mm 2 mps 743 mmHg 91%
    12:00 +25°C° 0.8 mm 2 mps 743 mmHg 91%
    13:00 +25°C° 0.8 mm 1 mps 743 mmHg 92%
    14:00 +26°C° 0.3 mm 1 mps 743 mmHg 86%
    15:00 +27°C° 0.3 mm 1 mps 742 mmHg 81%
    16:00 +28°C° 0.3 mm 1 mps 742 mmHg 75%
    17:00 +28°C° 0.2 mm 1 mps 742 mmHg 78%
    18:00 +27°C° 0.2 mm 1 mps 742 mmHg 81%
    19:00 +27°C° 0.2 mm 1 mps 742 mmHg 84%
    20:00 +26°C° 0 mm 1 mps 742 mmHg 87%
    21:00 +25°C° 0 mm 2 mps 743 mmHg 89%
    22:00 +24°C° 0 mm 2 mps 743 mmHg 91%
    23:00 +23°C° 0 mm 2 mps 743 mmHg 92%

    Tomorrow, 18 July, Thursday

    Time Temperature Precipitation Wind Pressure Humidity
    00:00 +23°C° 0 mm 2 mps 743 mmHg 93%
    01:00 +23°C° 0 mm 1 mps 743 mmHg 94%
    02:00 +22°C° 0 mm 1 mps 743 mmHg 94%
    03:00 +22°C° 0 mm 1 mps 743 mmHg 94%
    04:00 +22°C° 0 mm 1 mps 743 mmHg 95%
    05:00 +23°C° 0 mm 1 mps 743 mmHg 94%
    06:00 +23°C° 0 mm 1 mps 743 mmHg 93%
    07:00 +23°C° 0 mm 1 mps 744 mmHg 92%
    08:00 +24°C° 0 mm 1 mps 744 mmHg 88%
    09:00 +25°C° 0 mm 1 mps 743 mmHg 84%
    10:00 +26°C° 0 mm 1 mps 743 mmHg 80%
    11:00 +27°C° 0 mm 1 mps 743 mmHg 77%
    12:00 +28°C° 0 mm 1 mps 743 mmHg 73%
    13:00 +29°C° 0 mm 1 mps 743 mmHg 70%
    14:00 +29°C° 0 mm 2 mps 742 mmHg 69%
    15:00 +29°C° 0 mm 3 mps 742 mmHg 68%
    16:00 +29°C° 0 mm 3 mps 742 mmHg 67%
    17:00 +28°C° 0 mm 3 mps 742 mmHg 71%
    18:00 +27°C° 0 mm 3 mps 742 mmHg 74%
    19:00 +26°C° 0 mm 2 mps 741 mmHg 78%
    20:00 +26°C° 0 mm 3 mps 741 mmHg 81%
    21:00 +25°C° 0 mm 3 mps 741 mmHg 84%
    22:00 +25°C° 0 mm 3 mps 741 mmHg 86%
    23:00 +25°C° 0.1 mm 4 mps 741 mmHg 85%

    Day after tomorrow, 19 July, Friday

    Time Temperature Precipitation Wind Pressure Humidity
    00:00 +26°C° 0.1 mm 4 mps 741 mmHg 83%
    01:00 +26°C° 0.1 mm 5 mps 741 mmHg 81%
    02:00 +26°C° 0.1 mm 5 mps 741 mmHg 84%
    03:00 +26°C° 0.1 mm 5 mps 741 mmHg 86%
    04:00 +26°C° 0.1 mm 5 mps 740 mmHg 89%
    05:00 +27°C° 0 mm 5 mps 741 mmHg 89%
    06:00 +27°C° 0 mm 6 mps 741 mmHg 89%
    07:00 +27°C° 0 mm 6 mps 741 mmHg 89%
    08:00 +28°C° 0 mm 7 mps 741 mmHg 88%
    09:00 +28°C° 0 mm 7 mps 741 mmHg 86%
    10:00 +29°C° 0 mm 8 mps 741 mmHg 85%
    11:00 +29°C° 0 mm 8 mps 741 mmHg 82%
    12:00 +31°C° 0 mm 8 mps 741 mmHg 79%
    13:00 +32°C° 0 mm 8 mps 741 mmHg 76%
    14:00 +32°C° 0.3 mm 8 mps 741 mmHg 76%
    15:00 +32°C° 0.3 mm 8 mps 741 mmHg 76%
    16:00 +32°C° 0.3 mm 8 mps 741 mmHg 77%
    17:00 +30°C° 2.8 mm 7 mps 741 mmHg 81%
    18:00 +29°C° 2.8 mm 6 mps 741 mmHg 85%
    19:00 +28°C° 2.8 mm 5 mps 741 mmHg 89%
    20:00 +27°C° 0.1 mm 4 mps 742 mmHg 90%
    21:00 +27°C° 0.1 mm 4 mps 742 mmHg 92%
    22:00 +27°C° 0.1 mm 4 mps 742 mmHg 93%
    23:00 +27°C° 0 mm 4 mps 742 mmHg 93%

    20 July, Saturday

    Time Temperature Precipitation Wind Pressure Humidity
    00:00 +27°C° 0 mm 3 mps 742 mmHg 94%
    01:00 +27°C° 0 mm 3 mps 742 mmHg 95%
    02:00 +26°C° 0 mm 3 mps 742 mmHg 95%
    03:00 +26°C° 0 mm 3 mps 742 mmHg 95%
    04:00 +26°C° 0 mm 2 mps 742 mmHg 96%
    05:00 +27°C° 0 mm 3 mps 742 mmHg 95%
    06:00 +27°C° 0 mm 3 mps 742 mmHg 94%
    07:00 +28°C° 0 mm 4 mps 742 mmHg 93%
    08:00 +28°C° 0 mm 5 mps 742 mmHg 90%
    09:00 +29°C° 0 mm 5 mps 742 mmHg 87%
    10:00 +30°C° 0 mm 6 mps 742 mmHg 85%
    11:00 +30°C° 0 mm 7 mps 742 mmHg 81%
    12:00 +32°C° 0 mm 7 mps 742 mmHg 77%
    13:00 +33°C° 0 mm 8 mps 742 mmHg 74%
    14:00 +33°C° 0 mm 8 mps 742 mmHg 73%
    15:00 +32°C° 0 mm 8 mps 742 mmHg 72%
    16:00 +32°C° 0 mm 7 mps 742 mmHg 72%
    17:00 +30°C° 1 mm 6 mps 742 mmHg 77%
    18:00 +29°C° 1 mm 4 mps 742 mmHg 81%
    19:00 +28°C° 1 mm 2 mps 742 mmHg 86%
    20:00 +28°C° 0 mm 3 mps 742 mmHg 87%
    21:00 +27°C° 0 mm 3 mps 742 mmHg 89%
    22:00 +27°C° 0 mm 4 mps 742 mmHg 90%
    23:00 +27°C° 0.6 mm 4 mps 742 mmHg 91%

    21 July, Sunday

    Time Temperature Precipitation Wind Pressure Humidity
    00:00 +27°C° 0.6 mm 4 mps 741 mmHg 92%
    01:00 +27°C° 0.6 mm 3 mps 741 mmHg 93%
    02:00 +26°C° 1.3 mm 3 mps 741 mmHg 93%
    03:00 +26°C° 1.3 mm 2 mps 741 mmHg 92%
    04:00 +26°C° 1.3 mm 2 mps 741 mmHg 92%
    05:00 +26°C° 0.3 mm 1 mps 741 mmHg 91%
    06:00 +26°C° 0.3 mm 1 mps 742 mmHg 89%
    07:00 +25°C° 0.3 mm 1 mps 742 mmHg 87%
    08:00 +27°C° 0.2 mm 1 mps 742 mmHg 83%
    09:00 +28°C° 0.2 mm 1 mps 742 mmHg 79%
    10:00 +29°C° 0.2 mm 1 mps 742 mmHg 75%
    11:00 +30°C° 0.5 mm 2 mps 742 mmHg 75%
    12:00 +30°C° 0.5 mm 2 mps 741 mmHg 74%
    13:00 +30°C° 0.5 mm 3 mps 741 mmHg 74%
    14:00 +30°C° 1 mm 3 mps 741 mmHg 74%
    15:00 +30°C° 1 mm 3 mps 741 mmHg 74%
    16:00 +30°C° 1 mm 3 mps 741 mmHg 75%
    17:00 +29°C° 0.8 mm 3 mps 741 mmHg 77%
    18:00 +28°C° 0.8 mm 2 mps 741 mmHg 79%
    19:00 +27°C° 0.8 mm 2 mps 741 mmHg 80%
    20:00 +26°C° 0.4 mm 2 mps 741 mmHg 80%
    21:00 +25°C° 0.4 mm 2 mps 741 mmHg 79%
    22:00 +25°C° 0.4 mm 2 mps 741 mmHg 78%
    23:00 +24°C° 0.1 mm 2 mps 741 mmHg 78%

    22 July, Monday

    Time Temperature Precipitation Wind Pressure Humidity
    00:00 +23°C° 0.1 mm 2 mps 741 mmHg 77%
    01:00 +23°C° 0.1 mm 2 mps 741 mmHg 76%
    02:00 +21°C° 0.2 mm 2 mps 741 mmHg 78%
    03:00 +20°C° 0.2 mm 2 mps 741 mmHg 80%
    04:00 +20°C° 0.2 mm 2 mps 741 mmHg 82%
    05:00 +20°C° 0 mm 2 mps 741 mmHg 80%
    06:00 +21°C° 0 mm 1 mps 741 mmHg 78%
    07:00 +22°C° 0 mm 1 mps 741 mmHg 76%
    08:00 +23°C° 0 mm 1 mps 742 mmHg 71%
    09:00 +24°C° 0 mm 2 mps 742 mmHg 66%
    10:00 +25°C° 0 mm 2 mps 742 mmHg 60%
    11:00 +25°C° 0 mm 2 mps 742 mmHg 59%
    12:00 +26°C° 0 mm 3 mps 742 mmHg 57%
    13:00 +26°C° 0 mm 3 mps 742 mmHg 56%
    14:00 +26°C° 0 mm 3 mps 743 mmHg 57%
    15:00 +26°C° 0 mm 3 mps 743 mmHg 59%
    16:00 +26°C° 0 mm 4 mps 743 mmHg 60%
    17:00 +25°C° 0 mm 4 mps 743 mmHg 61%
    18:00 +23°C° 0 mm 4 mps 743 mmHg 61%
    19:00 +22°C° 0 mm 4 mps 743 mmHg 62%
    20:00 +21°C° 0 mm 4 mps 743 mmHg 62%
    21:00 +20°C° 0 mm 3 mps 744 mmHg 62%
    22:00 +18°C° 0 mm 3 mps 744 mmHg 63%
    23:00 +18°C° 0 mm 3 mps 744 mmHg 66%
    Show more